Theta_e
329 330 330 330 330 328 328 328 327 326 325 324 323 321 320 320 319 318 316 314 313 313 313 313 312 311 312 313 314 315 315 316 316 315 314 314 311 311 308 307 306 306 306
328 328 328 328 327 327 326 325 323 322 320 319 319 318 317 315 313 311 311 310 310 310 310 310 309 309 310 312 312 312 313 314 312 313 310 309 307 306 306 305 304 304 304
326 326 323 322 323 322 321 319 318 317 317 317 316 314 311 310 309 308 307 306 306 306 307 307 308 308 308 307 308 308 310 311 311 310 307 305 303 303 302 302 302 301 300
322 321 321 320 319 318 317 316 316 316 315 312 309 308 307 306 305 305 305 304 304 304 305 305 305 305 305 305 305 306 306 308 308 307 305 302 301 301 301 301 299 298 298
318 317 317 316 316 316 314 313 311 309 308 307 306 305 304 304 304 304 304 303 303 302 302 302 302 302 302 302 302 303 303 305 305 305 303 301 300 299 299 299 298 297 297
315 315 313 312 310 310 309 308 306 306 305 305 304 303 302 302 302 303 303 302 301 300 300 300 299 300 300 300 300 301 301 301 302 302 302 301 302 302 300 299 297 293 291
309 307 307 307 307 306 305 305 304 303 302 302 302 301 301 301 301 301 301 300 300 298 298 298 298 298 298 298 298 299 299 299 299 299 299 300 300 301 301 298 297 295 295
306 306 305 305 305 303 303 303 302 302 301 301 301 302 301 300 300 299 300 298 297 296 296 296 296 296 297 297 297 296 297 297 296 296 297 298 298 299 299 300 299 296 293
304 304 304 304 303 303 302 302 301 301 301 301 301 301 300 300 298 297 297 297 296 295 295 295 296 296 296 295 295 294 294 294 293 294 295 296 297 298 298 297 295 293 289
304 304 303 303 303 302 301 301 301 300 300 300 300 300 300 299 298 297 297 296 296 296 295 294 294 294 294 294 294 293 291 291 291 291 292 293 294 294 295 295 295 293 291
304 303 302 302 302 302 301 301 301 300 300 299 299 299 299 298 297 297 297 297 296 296 295 295 293 293 293 293 293 293 291 289 288 289 289 290 291 291 291 292 292 292 292
304 304 303 302 302 301 301 300 300 299 298 298 298 297 297 296 296 296 296 296 295 295 295 294 293 291 291 291 292 292 291 288 288 287 287 287 287 287 287 288 289 289 289
303 302 302 301 301 300 300 300 299 298 298 297 296 296 297 296 296 296 296 295 295 295 295 294 292 291 289 289 291 290 290 288 288 287 286 286 286 286 286 286 285 286 286
302 301 301 301 300 300 300 299 299 298 297 297 297 297 296 296 296 296 295 295 295 294 294 294 292 290 288 287 288 289 289 288 287 287 286 285 284 284 284 285 285 285 285
301 300 300 299 299 299 298 298 299 299 299 298 297 297 296 295 296 295 295 295 294 294 292 291 291 290 288 287 287 287 288 287 286 286 286 286 284 284 284 284 284 284 283
298 298 298 299 298 298 298 298 298 298 298 297 297 297 296 295 295 294 294 294 293 293 291 290 290 290 288 287 286 286 286 287 286 286 286 285 285 284 283 283 283 283 283
295 295 295 295 296 296 296 296 296 296 296 296 296 296 296 296 295 294 294 294 293 293 292 292 291 291 289 289 288 286 285 285 285 285 285 285 285 284 283 283 283 283 283
292 293 293 293 294 294 294 295 295 295 295 296 296 296 295 295 295 294 294 294 294 293 292 292 291 291 290 289 289 288 287 286 285 284 284 285 285 284 284 283 283 283 283
291 291 292 292 292 293 293 293 294 294 294 294 294 295 294 294 294 294 293 293 294 293 293 292 292 291 290 290 289 289 288 288 287 286 284 284 284 284 284 284 283 283 283
289 289 290 290 291 291 292 292 292 292 292 293 293 293 293 292 292 293 292 292 292 291 291 291 292 291 291 290 290 289 288 288 287 287 286 285 284 283 283 284 283 283 284
285 285 287 287 288 288 289 290 290 291 291 291 291 291 291 291 291 291 291 291 291 290 290 289 290 290 290 290 289 289 289 288 287 287 286 286 285 284 283 283 283 283 283
283 283 283 284 284 285 287 288 288 289 289 289 289 290 290 290 290 289 289 289 289 289 289 289 289 289 289 289 289 288 288 288 288 288 287 287 286 285 284 283 282 282 282
283 283 283 283 282 283 283 283 284 285 285 286 287 287 287 287 287 287 287 287 287 287 287 287 287 287 287 287 287 287 287 287 287 287 287 287 286 286 285 283 282 282 282
284 282 282 282 282 282 282 282 282 282 282 282 282 283 283 283 283 283 284 284 284 285 286 286 286 286 286 286 286 286 286 286 286 286 286 285 285 286 285 284 283 282 282
283 282 281 281 281 281 281 281 281 281 281 281 280 281 281 281 280 280 280 280 281 282 282 283 284 284 284 285 285 285 285 285 285 285 285 285 285 285 284 284 284 283 282
282 281 281 280 280 280 279 279 280 280 280 280 280 280 280 279 279 278 279 279 280 280 280 280 280 281 281 282 282 283 284 285 285 285 285 285 285 284 284 284 283 283 282
Wind_Speed
17 18 20 21 23 22 23 23 23 21 20 20 18 17 15 13 11 9 7 4 3 2 1 3 2 4 5 6 6 7 9 11 11 10 10 11 13 16 16 15 14 12 10
17 19 21 22 22 23 24 22 20 20 19 17 17 16 13 11 10 8 7 4 3 3 2 1 1 3 4 5 6 7 8 9 10 9 8 10 13 17 18 17 15 13 11
19 21 22 22 23 23 22 21 20 20 17 15 13 13 13 11 9 8 6 4 3 2 1 1 3 4 5 6 7 8 8 9 9 7 6 9 12 14 18 16 15 12 11
18 19 21 20 19 20 20 19 17 15 15 16 15 14 13 12 10 9 7 4 3 1 2 2 3 4 6 6 7 8 9 10 8 8 8 8 9 10 19 18 16 15 13
17 19 19 19 20 19 18 16 16 16 17 16 15 14 12 10 10 8 6 3 2 0 2 3 4 5 5 6 8 8 8 9 9 8 7 6 8 8 19 17 18 15 14
16 16 17 20 20 19 19 19 16 15 15 14 14 14 14 11 8 6 5 2 2 2 2 3 4 4 5 5 8 9 9 8 10 9 10 10 13 13 16 20 18 11 7
18 20 21 21 20 18 18 18 18 16 15 14 15 14 11 8 6 2 4 2 2 4 4 4 3 5 5 6 7 8 8 8 9 10 11 13 15 15 16 18 21 17 9
15 15 16 18 20 19 19 18 17 16 15 13 10 9 8 7 6 3 3 1 2 4 4 3 4 6 8 8 9 9 9 9 10 10 13 14 13 13 13 18 19 20 12
15 18 19 19 19 18 17 16 15 14 12 10 9 9 10 8 8 5 4 0 2 5 5 4 4 6 7 6 8 9 8 6 6 7 7 9 9 9 11 13 14 18 5
8 10 12 14 16 17 18 18 16 15 13 11 9 6 8 8 8 6 4 3 2 3 4 5 4 5 6 6 7 7 7 5 4 4 4 3 4 5 9 11 15 19 7
10 11 12 13 13 14 15 14 14 13 12 10 8 5 5 8 7 7 6 4 5 5 5 6 6 6 7 7 7 8 6 5 4 4 2 1 3 4 4 7 10 16 15
8 10 11 11 13 14 13 13 14 15 14 10 6 6 7 6 7 9 8 9 8 8 8 7 7 7 6 6 6 8 6 5 5 5 5 4 4 4 4 5 8 11 12
8 10 11 11 11 13 15 14 14 13 11 10 9 7 7 7 8 8 8 9 9 11 11 9 8 7 6 7 7 6 6 8 6 7 7 6 5 5 4 4 6 7 8
2 5 7 9 10 10 10 10 13 15 14 11 10 10 9 8 7 8 7 9 10 10 12 10 10 8 8 8 8 8 9 8 9 9 8 7 7 7 7 6 6 7 7
2 3 5 7 10 12 13 13 13 12 12 13 13 10 10 9 6 6 5 7 9 8 10 11 11 11 11 10 9 9 10 9 9 9 10 9 8 9 9 9 8 9 6
2 2 0 3 8 6 8 10 11 12 13 13 11 10 10 10 6 5 6 8 8 9 9 11 12 12 13 12 10 11 12 12 11 11 11 11 10 11 11 11 11 11 10
5 4 3 2 3 5 8 9 10 8 10 13 12 11 11 11 9 9 10 10 10 9 12 16 17 15 14 14 14 14 15 14 13 14 14 14 14 13 13 14 15 13 13
5 5 6 5 5 5 6 8 9 10 11 11 10 11 12 12 12 11 12 12 14 13 15 15 17 16 16 16 17 16 14 13 14 15 17 17 17 17 16 16 16 18 15
4 4 6 6 7 7 8 9 10 11 12 14 12 12 11 11 11 11 10 13 16 19 19 19 18 17 16 16 18 17 16 16 15 15 16 17 19 20 20 21 20 19 17
5 5 5 6 6 6 7 8 9 9 11 12 12 11 9 8 10 10 11 12 12 15 17 18 18 17 18 16 17 18 19 19 18 18 18 19 19 21 23 23 21 20 20
7 6 5 6 6 7 7 7 7 7 8 8 9 8 6 8 10 9 8 8 9 10 11 12 14 15 16 16 16 17 19 21 21 20 20 21 21 23 23 23 23 24 22
7 6 6 6 6 6 5 5 5 4 3 3 4 3 3 4 5 4 5 5 6 7 8 9 11 13 15 16 15 16 18 20 21 21 21 21 22 22 23 24 24 23 23
8 7 6 6 6 5 6 5 5 5 5 5 4 3 3 2 2 3 4 4 5 6 6 7 9 10 11 12 13 14 16 18 19 20 20 21 21 23 23 24 24 23 23
7 8 8 8 8 7 7 6 5 5 5 6 6 4 4 5 6 6 7 8 8 8 7 7 7 8 10 11 11 12 13 14 15 17 18 20 22 22 22 24 25 26 25
7 7 8 8 8 7 7 6 6 6 6 6 6 6 7 8 10 10 10 10 11 10 9 8 8 8 8 8 9 11 13 13 13 14 16 19 21 22 23 24 25 24 25
7 7 8 8 8 8 9 8 8 8 8 9 9 8 10 12 14 12 9 9 9 11 13 15 15 15 15 18 17 14 11 11 13 14 16 19 22 23 24 25 25 25 26
Wind_Direction
155 160 157 152 150 148 148 146 148 149 153 155 160 159 156 152 147 150 143 145 162 165 262 306 292 308 315 302 293 290 280 269 268 269 246 254 237 226 217 215 215 212 215
145 147 145 145 147 146 148 151 156 155 153 154 153 150 148 142 136 140 135 142 162 177 197 251 325 321 304 295 299 296 292 286 274 269 251 244 228 222 217 206 208 209 215
149 149 145 146 148 147 149 151 152 150 146 148 149 147 142 140 142 128 123 134 148 143 116 8 343 330 316 317 321 311 299 284 275 260 243 231 229 218 206 201 203 204 202
145 147 145 146 147 144 145 146 150 150 149 150 147 145 141 141 133 127 113 117 93 50 12 330 326 316 317 313 305 301 297 292 281 259 237 226 224 218 211 203 200 200 194
141 145 143 144 146 146 145 146 147 147 145 144 143 138 132 133 130 124 115 122 111 15 312 308 312 317 316 315 308 298 288 285 276 250 229 217 211 196 208 214 211 203 204
143 143 147 147 145 146 147 147 147 144 143 146 143 146 142 132 123 122 103 94 45 321 331 327 322 315 298 305 306 303 295 283 272 260 244 233 237 228 223 218 206 183 207
149 150 149 149 146 149 149 149 150 151 150 147 152 150 134 124 127 128 115 90 337 316 324 327 318 304 297 295 287 283 282 281 275 274 267 260 259 251 237 220 210 205 200
154 153 154 153 150 156 157 156 151 151 158 161 150 129 141 159 154 171 127 92 335 332 347 345 325 309 296 296 293 287 281 280 279 271 265 268 262 257 249 243 230 216 207
165 167 167 165 161 161 160 158 158 157 159 166 164 168 167 168 170 163 192 305 351 352 5 5 324 299 291 292 295 294 289 283 285 292 275 268 262 251 237 226 209 193 185
174 172 167 167 167 167 168 165 165 167 172 177 183 181 175 171 182 182 209 240 310 332 338 347 314 302 293 278 270 287 288 288 277 279 289 281 250 217 220 215 227 194 175
163 167 169 175 178 177 173 174 170 174 180 189 195 198 196 198 193 196 215 249 260 270 304 318 321 294 271 254 254 263 280 280 271 268 273 243 202 216 214 205 215 222 211
177 171 177 183 187 185 181 183 181 185 191 199 207 229 227 228 215 214 217 237 254 265 279 288 309 293 272 257 248 258 274 268 259 252 250 250 244 239 223 210 211 216 220
178 182 183 186 190 195 192 192 189 194 205 215 219 237 247 239 244 234 235 244 247 259 273 272 281 288 271 256 245 255 243 260 261 256 258 254 248 240 227 211 204 205 212
187 192 192 193 201 207 213 217 212 210 214 222 231 245 246 242 242 243 247 251 254 251 258 260 256 276 266 262 245 237 245 261 260 256 263 260 242 222 212 205 195 185 186
166 195 205 211 217 211 217 220 225 236 237 238 243 255 256 248 244 245 254 267 270 266 250 247 252 260 258 256 253 250 253 257 254 251 246 242 236 229 218 211 208 203 202
100 93 219 229 243 243 250 248 242 242 241 244 250 256 259 261 260 261 260 260 262 272 251 251 254 261 259 258 259 256 256 254 252 245 241 237 234 229 226 221 219 218 224
25 8 345 291 261 245 242 245 249 244 247 250 254 259 265 274 274 272 263 257 258 253 244 254 258 265 269 267 264 260 260 259 259 249 243 239 239 234 223 225 224 227 232
357 359 348 336 318 300 286 277 272 268 269 266 260 257 257 257 258 261 260 254 247 240 244 256 264 271 275 272 267 263 264 263 254 249 248 243 239 235 225 226 225 226 227
1 351 344 331 326 318 306 295 285 278 272 274 275 264 262 258 260 259 249 242 249 250 253 261 268 271 278 274 266 265 264 263 261 255 249 246 243 237 237 237 236 234 229
332 322 325 323 327 324 316 306 296 285 275 271 272 274 275 259 254 253 246 249 257 264 266 268 274 282 278 275 274 267 264 261 260 258 256 253 250 245 242 241 236 232 225
342 338 326 313 324 333 338 332 313 297 290 284 284 284 271 264 272 271 272 272 273 276 276 277 280 281 282 282 278 271 267 265 263 263 261 260 256 249 248 246 242 242 235
344 343 340 340 339 326 331 332 346 346 335 323 318 327 286 263 270 290 299 297 295 291 289 287 286 285 283 281 280 276 272 269 268 267 266 264 260 256 253 251 243 237 236
339 340 337 338 338 332 331 340 337 334 335 347 0 5 18 19 13 354 342 335 324 308 300 291 288 288 289 290 289 283 279 278 277 275 272 268 261 256 255 250 242 233 230
335 337 332 330 332 327 333 334 333 332 333 332 327 321 333 327 317 317 309 305 301 299 300 309 313 305 301 300 294 286 282 283 283 280 276 270 266 264 257 252 245 242 238
320 326 324 320 317 318 322 315 318 320 317 323 328 315 312 314 316 313 299 299 302 303 294 291 293 301 305 307 313 305 297 292 287 284 281 274 269 266 261 255 251 242 239
306 310 309 306 304 306 309 306 301 302 303 301 305 304 303 307 310 310 303 299 298 297 298 294 290 288 282 281 282 285 288 285 286 282 278 275 270 265 260 257 253 244 241